When you browse on this site, cookies collect data to enhance your experience and personalize the content and advertising you see.
Visit our Privacy Policy to learn more. By continuing to use the site, you agree to this use of cookies and data.
  • Em Portugal
  • Lista de países
  • Para 7 dias
  • Temperatura da água
  • Mapas de satélite
  • Mapa do tempo
  • Widgets de tempo
  • user-avatar
    Iniciar Sessão

    Previsão horária em Jambol

    Hoje, 20 Maio, Segunda-feira

    Tempo Temperatura Precipitação Vento Pressão Humidade
    00:00 +19°C° 0 mm 1 m/s 745 mmHg 80%
    01:00 +18°C° 0 mm 1 m/s 745 mmHg 82%
    02:00 +18°C° 0 mm 1 m/s 744 mmHg 81%
    03:00 +18°C° 0 mm 1 m/s 744 mmHg 82%
    04:00 +16°C° 0 mm 1 m/s 744 mmHg 83%
    05:00 +16°C° 0 mm 1 m/s 744 mmHg 84%
    06:00 +18°C° 0 mm 2 m/s 744 mmHg 78%
    07:00 +19°C° 0 mm 2 m/s 745 mmHg 73%
    08:00 +21°C° 0 mm 3 m/s 745 mmHg 68%
    09:00 +22°C° 0 mm 4 m/s 745 mmHg 63%
    10:00 +25°C° 0 mm 4 m/s 745 mmHg 59%
    11:00 +26°C° 0 mm 5 m/s 745 mmHg 54%
    12:00 +27°C° 0 mm 6 m/s 745 mmHg 53%
    13:00 +27°C° 0 mm 6 m/s 745 mmHg 52%
    14:00 +28°C° 0 mm 6 m/s 744 mmHg 51%
    15:00 +27°C° 0 mm 6 m/s 744 mmHg 52%
    16:00 +27°C° 0 mm 6 m/s 744 mmHg 53%
    17:00 +26°C° 0 mm 7 m/s 744 mmHg 55%
    18:00 +23°C° 0 mm 6 m/s 744 mmHg 58%
    19:00 +21°C° 0 mm 6 m/s 744 mmHg 62%
    20:00 +19°C° 0 mm 5 m/s 745 mmHg 66%
    21:00 +18°C° 0 mm 4 m/s 745 mmHg 68%
    22:00 +18°C° 0 mm 3 m/s 745 mmHg 71%
    23:00 +17°C° 0 mm 2 m/s 746 mmHg 73%

    Amanhã, 21 Maio, Terça-feira

    Tempo Temperatura Precipitação Vento Pressão Humidade
    00:00 +16°C° 0 mm 2 m/s 746 mmHg 77%
    01:00 +15°C° 0 mm 2 m/s 746 mmHg 81%
    02:00 +15°C° 0 mm 1 m/s 746 mmHg 85%
    03:00 +14°C° 0 mm 1 m/s 746 mmHg 87%
    04:00 +14°C° 0 mm 1 m/s 746 mmHg 89%
    05:00 +14°C° 0 mm 1 m/s 746 mmHg 91%
    06:00 +16°C° 0 mm 1 m/s 747 mmHg 84%
    07:00 +19°C° 0 mm 1 m/s 747 mmHg 78%
    08:00 +21°C° 0 mm 1 m/s 747 mmHg 71%
    09:00 +21°C° 0 mm 2 m/s 747 mmHg 65%
    10:00 +24°C° 0 mm 2 m/s 747 mmHg 59%
    11:00 +25°C° 0 mm 3 m/s 747 mmHg 53%
    12:00 +26°C° 0 mm 3 m/s 747 mmHg 49%
    13:00 +27°C° 0 mm 3 m/s 747 mmHg 45%
    14:00 +27°C° 0 mm 3 m/s 747 mmHg 41%
    15:00 +27°C° 0.2 mm 3 m/s 747 mmHg 47%
    16:00 +26°C° 0.2 mm 2 m/s 747 mmHg 52%
    17:00 +25°C° 0.2 mm 2 m/s 746 mmHg 58%
    18:00 +23°C° 0.1 mm 2 m/s 747 mmHg 62%
    19:00 +20°C° 0.1 mm 2 m/s 747 mmHg 66%
    20:00 +18°C° 0.1 mm 2 m/s 747 mmHg 70%
    21:00 +18°C° 0.2 mm 1 m/s 748 mmHg 73%
    22:00 +16°C° 0.2 mm 1 m/s 748 mmHg 77%
    23:00 +15°C° 0.2 mm 1 m/s 748 mmHg 81%

    Depois de amanhã, 22 Maio, Quarta-feira

    Tempo Temperatura Precipitação Vento Pressão Humidade
    00:00 +15°C° 0 mm 1 m/s 748 mmHg 81%
    01:00 +14°C° 0 mm 1 m/s 748 mmHg 82%
    02:00 +14°C° 0 mm 1 m/s 748 mmHg 83%
    03:00 +14°C° 0 mm 1 m/s 749 mmHg 83%
    04:00 +14°C° 0 mm 1 m/s 749 mmHg 83%
    05:00 +13°C° 0 mm 1 m/s 749 mmHg 82%
    06:00 +15°C° 0 mm 1 m/s 750 mmHg 75%
    07:00 +19°C° 0 mm 1 m/s 750 mmHg 69%
    08:00 +21°C° 0 mm 1 m/s 750 mmHg 62%
    09:00 +21°C° 0 mm 2 m/s 750 mmHg 56%
    10:00 +24°C° 0 mm 2 m/s 750 mmHg 50%
    11:00 +25°C° 0 mm 2 m/s 750 mmHg 43%
    12:00 +26°C° 0 mm 2 m/s 750 mmHg 43%
    13:00 +26°C° 0 mm 3 m/s 750 mmHg 42%
    14:00 +27°C° 0 mm 3 m/s 750 mmHg 41%
    15:00 +27°C° 0 mm 3 m/s 750 mmHg 42%
    16:00 +27°C° 0 mm 2 m/s 749 mmHg 43%
    17:00 +27°C° 0 mm 2 m/s 749 mmHg 44%
    18:00 +25°C° 0 mm 1 m/s 749 mmHg 50%
    19:00 +23°C° 0 mm 1 m/s 749 mmHg 56%
    20:00 +21°C° 0 mm 1 m/s 749 mmHg 61%
    21:00 +20°C° 0 mm 1 m/s 749 mmHg 65%
    22:00 +19°C° 0 mm 1 m/s 749 mmHg 68%
    23:00 +18°C° 0 mm 1 m/s 750 mmHg 71%

    23 Maio, Quinta-feira

    Tempo Temperatura Precipitação Vento Pressão Humidade
    00:00 +15°C° 0 mm 0 m/s 749 mmHg 73%
    01:00 +15°C° 0 mm 0 m/s 749 mmHg 74%
    02:00 +14°C° 0 mm 0 m/s 749 mmHg 76%
    03:00 +14°C° 0 mm 0 m/s 749 mmHg 77%
    04:00 +14°C° 0 mm 0 m/s 749 mmHg 78%
    05:00 +14°C° 0 mm 1 m/s 749 mmHg 79%
    06:00 +18°C° 0 mm 1 m/s 749 mmHg 73%
    07:00 +20°C° 0 mm 1 m/s 749 mmHg 67%
    08:00 +22°C° 0 mm 1 m/s 749 mmHg 61%
    09:00 +24°C° 0 mm 1 m/s 749 mmHg 57%
    10:00 +23°C° 0 mm 0 m/s 749 mmHg 53%
    11:00 +25°C° 0 mm 0 m/s 749 mmHg 50%
    12:00 +27°C° 0.1 mm 1 m/s 749 mmHg 48%
    13:00 +28°C° 0.1 mm 1 m/s 748 mmHg 46%
    14:00 +28°C° 0.1 mm 1 m/s 748 mmHg 45%
    15:00 +27°C° 0.2 mm 1 m/s 748 mmHg 48%
    16:00 +27°C° 0.2 mm 1 m/s 747 mmHg 51%
    17:00 +27°C° 0.2 mm 2 m/s 747 mmHg 54%
    18:00 +24°C° 0.1 mm 2 m/s 747 mmHg 61%
    19:00 +21°C° 0.1 mm 2 m/s 747 mmHg 69%
    20:00 +19°C° 0.1 mm 2 m/s 747 mmHg 77%
    21:00 +18°C° 0 mm 2 m/s 747 mmHg 79%
    22:00 +18°C° 0 mm 2 m/s 747 mmHg 81%
    23:00 +17°C° 0 mm 2 m/s 747 mmHg 84%

    24 Maio, Sexta-feira

    Tempo Temperatura Precipitação Vento Pressão Humidade
    00:00 +16°C° 0 mm 1 m/s 747 mmHg 85%
    01:00 +16°C° 0 mm 1 m/s 746 mmHg 86%
    02:00 +15°C° 0 mm 1 m/s 746 mmHg 87%
    03:00 +15°C° 0.1 mm 1 m/s 746 mmHg 86%
    04:00 +16°C° 0.1 mm 1 m/s 746 mmHg 85%
    05:00 +16°C° 0.1 mm 2 m/s 745 mmHg 85%
    06:00 +16°C° 0.2 mm 2 m/s 746 mmHg 84%
    07:00 +16°C° 0.2 mm 2 m/s 746 mmHg 84%
    08:00 +16°C° 0.2 mm 2 m/s 746 mmHg 84%
    09:00 +17°C° 0.1 mm 2 m/s 746 mmHg 81%
    10:00 +17°C° 0.1 mm 2 m/s 746 mmHg 79%
    11:00 +18°C° 0.1 mm 2 m/s 746 mmHg 76%
    12:00 +18°C° 0 mm 2 m/s 745 mmHg 73%
    13:00 +19°C° 0 mm 2 m/s 745 mmHg 70%
    14:00 +20°C° 0 mm 2 m/s 745 mmHg 67%
    15:00 +20°C° 0 mm 2 m/s 744 mmHg 64%
    16:00 +22°C° 0 mm 1 m/s 744 mmHg 61%
    17:00 +23°C° 0 mm 1 m/s 744 mmHg 58%
    18:00 +21°C° 0 mm 1 m/s 743 mmHg 65%
    19:00 +20°C° 0 mm 1 m/s 743 mmHg 72%
    20:00 +18°C° 0 mm 1 m/s 743 mmHg 79%
    21:00 +18°C° 0.1 mm 1 m/s 743 mmHg 81%
    22:00 +16°C° 0.1 mm 1 m/s 743 mmHg 84%
    23:00 +16°C° 0.1 mm 1 m/s 743 mmHg 87%

    25 Maio, Sábado

    Tempo Temperatura Precipitação Vento Pressão Humidade
    00:00 +16°C° 0.1 mm 1 m/s 743 mmHg 89%
    01:00 +15°C° 0.1 mm 1 m/s 743 mmHg 91%
    02:00 +15°C° 0.1 mm 2 m/s 743 mmHg 92%
    03:00 +14°C° 0 mm 2 m/s 743 mmHg 92%
    04:00 +14°C° 0 mm 2 m/s 743 mmHg 92%
    05:00 +13°C° 0 mm 2 m/s 743 mmHg 92%
    06:00 +15°C° 0 mm 2 m/s 743 mmHg 86%
    07:00 +17°C° 0 mm 2 m/s 744 mmHg 79%
    08:00 +19°C° 0 mm 2 m/s 744 mmHg 72%
    09:00 +20°C° 0 mm 2 m/s 744 mmHg 66%
    10:00 +23°C° 0 mm 2 m/s 744 mmHg 60%
    11:00 +24°C° 0 mm 3 m/s 744 mmHg 54%
    12:00 +25°C° 0.1 mm 2 m/s 744 mmHg 52%
    13:00 +25°C° 0.1 mm 2 m/s 744 mmHg 50%
    14:00 +26°C° 0.1 mm 2 m/s 743 mmHg 47%
    15:00 +26°C° 0.1 mm 2 m/s 743 mmHg 49%
    16:00 +26°C° 0.1 mm 2 m/s 743 mmHg 50%
    17:00 +26°C° 0.1 mm 2 m/s 743 mmHg 51%
    18:00 +24°C° 0 mm 2 m/s 743 mmHg 60%
    19:00 +21°C° 0 mm 2 m/s 743 mmHg 69%
    20:00 +19°C° 0 mm 1 m/s 743 mmHg 79%
    21:00 +19°C° 0 mm 1 m/s 743 mmHg 81%
    22:00 +18°C° 0 mm 1 m/s 744 mmHg 84%
    23:00 +16°C° 0 mm 1 m/s 744 mmHg 87%
    Mostrar mais